EW7114 Weather Reports


time (UTC)temp
F
wind
direction
speed
knots
gust
knots
rain 1hr
in
rain 24hr
in
rain mn
in
humidity
%
barometer
mb
20260503210521 72 297 3.5 7.8 0.00 0.00 0.00 20 1006.5
20260503210019 72 321 1.7 10.4 0.00 0.00 0.00 20 1006.5
20260503205518 73 247 7.0 10.4 0.00 0.00 0.00 22 1006.8
20260503205017 73 232 4.3 9.6 0.00 0.00 0.00 21 1006.8
20260503204516 73 191 0.9 8.7 0.00 0.00 0.00 20 1006.8
20260503204013 73 126 5.2 17.4 0.00 0.00 0.00 20 1006.9
20260503203516 73 190 3.5 17.4 0.00 0.00 0.00 20 1006.9
20260503203012 73 184 0.9 5.2 0.00 0.00 0.00 19 1007.1
20260503202511 73 166 2.6 5.2 0.00 0.00 0.00 19 1007.1
20260503202011 73 224 0.0 4.3 0.00 0.00 0.00 20 1007.2
20260503201505 73 215 0.0 6.1 0.00 0.00 0.00 19 1007.4
20260503201004 73 190 3.5 8.7 0.00 0.00 0.00 19 1007.5
20260503200502 73 172 2.6 8.7 0.00 0.00 0.00 19 1007.6
20260503200001 73 165 3.5 7.8 0.00 0.00 0.00 20 1007.8
20260503195600 73 249 3.5 8.7 0.00 0.00 0.00 20 1007.7
20260503195058 73 162 3.5 8.7 0.00 0.00 0.00 20 1007.9
20260503194607 73 163 5.2 9.6 0.00 0.00 0.00 20 1007.9
20260503194056 73 153 4.3 8.7 0.00 0.00 0.00 21 1008.0
20260503193555 73 84 4.3 7.8 0.00 0.00 0.00 21 1008.0
20260503193103 72 196 4.3 9.6 0.00 0.00 0.00 23 1008.1
20260503192550 72 147 4.3 7.0 0.00 0.00 0.00 22 1008.2
20260503192049 72 305 1.7 7.8 0.00 0.00 0.00 20 1008.2
20260503191607 72 95 3.5 8.7 0.00 0.00 0.00 21 1008.4
20260503191047 72 188 0.9 7.8 0.00 0.00 0.00 20 1008.5
20260503190546 72 350 0.9 8.7 0.00 0.00 0.00 21 1008.6
20260503190044 72 180 3.5 13.0 0.00 0.00 0.00 20 1008.7
20260503185542 72 153 7.8 13.0 0.00 0.00 0.00 19 1008.8
20260503185041 73 217 2.6 8.7 0.00 0.00 0.00 21 1008.9
20260503184540 73 350 6.1 9.6 0.00 0.00 0.00 22 1008.9
20260503184041 72 92 5.2 14.8 0.00 0.00 0.00 20 1008.9
20260503183537 73 128 7.8 14.8 0.00 0.00 0.00 22 1009.1
20260503183035 72 150 7.8 11.3 0.00 0.00 0.00 22 1009.2
20260503182535 71 180 6.1 13.0 0.00 0.00 0.00 22 1009.2
20260503182032 71 159 6.1 11.3 0.00 0.00 0.00 23 1009.3
20260503181544 70 173 4.3 8.7 0.00 0.00 0.00 25 1009.3
20260503181029 70 147 6.1 8.7 0.00 0.00 0.00 23 1009.5
20260503180529 70 140 5.2 13.0 0.00 0.00 0.00 24 1009.6
20260503180029 70 170 7.0 14.8 0.00 0.00 0.00 25 1009.6
20260503175525 70 134 8.7 14.8 0.00 0.00 0.00 26 1009.8
20260503175023 70 163 7.0 10.4 0.00 0.00 0.00 25 1009.8
20260503174522 69 176 6.1 9.6 0.00 0.00 0.00 27 1009.9
20260503174020 69 133 4.3 11.3 0.00 0.00 0.00 28 1010.0
20260503173519 68 172 7.0 12.2 0.00 0.00 0.00 28 1010.0
20260503173017 68 143 5.2 11.3 0.00 0.00 0.00 27 1010.1
20260503172515 69 186 7.0 11.3 0.00 0.00 0.00 28 1010.1
20260503172015 69 183 7.8 11.3 0.00 0.00 0.00 27 1010.2
20260503171512 68 160 5.2 9.6 0.00 0.00 0.00 28 1010.2
20260503171011 68 192 5.2 10.4 0.00 0.00 0.00 28 1010.2
20260503170510 68 132 7.0 9.6 0.00 0.00 0.00 28 1010.4
20260503160105 58 157 0.9 4.3 0.00 0.00 0.00 42 1011.2
20260503150534 47 240 0.0 1.7 0.00 0.00 0.00 53 1012.0
20260503131006 32 213 0.0 1.7 0.00 0.00 0.00 1 1012.3
20260503130503 31 213 0.9 3.5 0.00 0.00 0.00 1 1012.3
20260503110528 35 206 0.0 0.0 0.00 0.00 0.00 29 1012.7
20260503081550 39 206 0.0 2.6 0.00 0.00 0.00 39 1012.7
20260503081047 39 206 0.9 2.6 0.00 0.00 0.00 37 1012.7
20260503080549 38 206 0.0 1.7 0.00 0.00 0.00 37 1012.8
20260503080152 38 206 0.0 0.9 0.00 0.00 0.00 39 1012.8
20260503072539 37 206 1.7 3.5 0.00 0.00 0.00 52 1012.9
20260503072041 36 206 2.6 3.5 0.00 0.00 0.00 55 1012.8
20260503071538 37 206 2.6 3.5 0.00 0.00 0.00 56 1012.7
20260503071036 38 206 2.6 3.5 0.00 0.00 0.00 56 1012.7
20260503070534 38 206 1.7 3.5 0.00 0.00 0.00 56 1012.8
20260503055020 42 206 0.9 4.3 0.00 0.00 0.00 55 1012.2
20260503054516 42 195 1.7 4.3 0.00 0.00 0.00 55 1012.2
20260503054014 41 165 1.7 4.3 0.00 0.00 0.00 55 1012.2
20260503053513 40 159 1.7 4.3 0.00 0.00 0.00 55 1012.1
20260503053012 40 163 3.5 4.3 0.00 0.00 0.00 55 1012.0
20260503052509 41 167 2.6 4.3 0.00 0.00 0.00 54 1012.0
20260503052008 42 126 3.5 4.3 0.00 0.00 0.00 52 1011.9
20260503051506 44 167 1.7 5.2 0.00 0.00 0.00 49 1011.8
20260503051005 47 150 2.6 5.2 0.00 0.00 0.00 45 1011.7
20260503050504 50 325 0.0 1.7 0.00 0.00 0.00 43 1011.8
20260503050003 51 325 0.0 2.6 0.00 0.00 0.00 43 1011.7
20260503045601 50 325 1.7 3.5 0.00 0.00 0.00 44 1011.7
20260503045100 50 325 1.7 3.5 0.00 0.00 0.00 43 1011.8
20260503044558 50 325 0.9 2.6 0.00 0.00 0.00 44 1011.8
20260503044057 51 5 0.0 2.6 0.00 0.00 0.00 44 1011.8
20260503043557 51 18 0.0 3.5 0.00 0.00 0.00 44 1011.8
20260503043100 52 315 1.7 4.3 0.00 0.00 0.00 43 1011.9
20260503042558 52 328 1.7 3.5 0.00 0.00 0.00 43 1011.9
20260503042057 52 307 1.7 3.5 0.00 0.00 0.00 43 1011.9
20260503041554 52 303 1.7 3.5 0.00 0.00 0.00 42 1011.9
20260503041057 52 315 1.7 2.6 0.00 0.00 0.00 42 1011.9
20260503040553 52 307 0.0 3.5 0.00 0.00 0.00 44 1012.0
20260503040054 53 307 0.9 3.5 0.00 0.00 0.00 43 1011.9
20260503035548 53 314 1.7 3.5 0.00 0.00 0.00 43 1011.9
20260503035048 53 309 1.7 4.3 0.00 0.00 0.00 43 1011.9
20260503034548 53 309 1.7 4.3 0.00 0.00 0.00 42 1011.8
20260503034044 53 318 1.7 4.3 0.00 0.00 0.00 44 1011.7
20260503033542 53 299 0.9 3.5 0.00 0.00 0.00 44 1011.7
20260503033042 53 316 1.7 3.5 0.00 0.00 0.00 44 1011.7
20260503032540 53 301 1.7 3.5 0.00 0.00 0.00 44 1011.6
20260503032040 53 315 1.7 3.5 0.00 0.00 0.00 44 1011.6
20260503031540 54 307 0.9 4.3 0.00 0.00 0.00 44 1011.5
20260503031039 54 298 0.9 4.3 0.00 0.00 0.00 43 1011.5
20260503030538 54 311 0.0 2.6 0.00 0.00 0.00 44 1011.4
20260503030037 54 328 0.0 3.5 0.00 0.00 0.00 42 1011.4
20260503025536 55 328 0.9 4.3 0.00 0.00 0.00 42 1011.3
20260503025033 55 330 0.9 4.3 0.00 0.00 0.00 42 1011.3
20260503024536 56 359 0.0 2.6 0.00 0.00 0.00 40 1011.3
20260503024031 57 64 0.9 3.5 0.00 0.00 0.00 40 1011.3
20260503023531 58 326 1.7 4.3 0.00 0.00 0.00 39 1011.2
20260503023028 59 323 1.7 4.3 0.00 0.00 0.00 37 1011.2
20260503022526 60 305 1.7 3.5 0.00 0.00 0.00 38 1011.2
20260503022024 61 359 0.9 3.5 0.00 0.00 0.00 35 1011.3
20260503021524 61 350 1.7 5.2 0.00 0.00 0.00 34 1011.3
20260503021022 62 7 1.7 5.2 0.00 0.00 0.00 34 1011.3
20260503020520 63 10 1.7 4.3 0.00 0.00 0.00 32 1011.3
20260503020019 63 345 2.6 4.3 0.00 0.00 0.00 31 1011.3
20260503015521 63 340 2.6 5.2 0.00 0.00 0.00 31 1011.3
20260503015015 64 345 2.6 5.2 0.00 0.00 0.00 31 1011.3
20260503014514 64 345 3.5 9.6 0.00 0.00 0.00 31 1011.3
20260503014012 65 332 5.2 9.6 0.00 0.00 0.00 30 1011.4
20260503013511 65 336 3.5 9.6 0.00 0.00 0.00 30 1011.4
20260503013015 66 335 4.3 10.4 0.00 0.00 0.00 30 1011.3
20260503012508 66 359 6.1 10.4 0.00 0.00 0.00 30 1011.3
20260503012005 66 1 6.1 11.3 0.00 0.00 0.00 31 1011.4
20260503011504 66 1 7.8 12.2 0.00 0.00 0.00 30 1011.3
20260503011004 67 329 7.0 11.3 0.00 0.00 0.00 30 1011.3
20260503010502 67 359 6.1 10.4 0.00 0.00 0.00 28 1011.3
20260503010100 67 359 3.5 9.6 0.00 0.00 0.00 29 1011.3
20260503005559 67 330 7.0 10.4 0.00 0.00 0.00 28 1011.3
20260503005057 67 359 6.1 10.4 0.00 0.00 0.00 28 1011.3
20260503004558 68 9 6.1 11.3 0.00 0.00 0.00 27 1011.3
20260503004055 68 17 8.7 11.3 0.00 0.00 0.00 26 1011.2
20260503003553 69 23 6.1 11.3 0.00 0.00 0.00 26 1011.3
20260503003055 70 345 7.0 11.3 0.00 0.00 0.00 26 1011.2
20260503002550 70 359 6.1 13.0 0.00 0.00 0.00 25 1011.2
20260503002049 71 27 5.2 8.7 0.00 0.00 0.00 25 1011.2
20260503001550 70 319 0.0 4.3 0.00 0.00 0.00 23 1011.2
20260503001046 70 215 2.6 5.2 0.00 0.00 0.00 23 1011.2
20260503000543 70 68 1.7 8.7 0.00 0.00 0.00 23 1011.3
20260503000044 71 320 3.5 8.7 0.00 0.00 0.00 23 1011.3
20260502235544 71 15 2.6 10.4 0.00 0.00 0.00 23 1011.3
20260502235039 71 50 6.1 12.2 0.00 0.00 0.00 24 1011.3
20260502234549 71 336 6.1 12.2 0.00 0.00 0.00 22 1011.3
20260502234037 71 16 5.2 11.3 0.00 0.00 0.00 24 1011.3
20260502233535 71 36 7.0 13.9 0.00 0.00 0.00 23 1011.3
20260502233040 71 350 9.6 13.9 0.00 0.00 0.00 24 1011.4
20260502232532 71 265 1.7 12.2 0.00 0.00 0.00 24 1011.4
20260502232031 71 36 2.6 12.2 0.00 0.00 0.00 23 1011.5
20260502231529 71 4 4.3 9.6 0.00 0.00 0.00 24 1011.5
20260502231028 71 332 2.6 12.2 0.00 0.00 0.00 23 1011.6
20260502230527 72 345 6.1 12.2 0.00 0.00 0.00 23 1011.7
20260502230032 71 22 4.3 10.4 0.00 0.00 0.00 24 1011.7
20260502225523 70 50 5.2 10.4 0.00 0.00 0.00 23 1011.9
20260502225022 71 315 5.2 9.6 0.00 0.00 0.00 23 1012.0
20260502224520 71 15 3.5 9.6 0.00 0.00 0.00 23 1012.1
20260502224019 71 345 1.7 7.8 0.00 0.00 0.00 22 1012.2
20260502223518 71 176 2.6 9.6 0.00 0.00 0.00 21 1012.2
20260502223024 71 321 4.3 9.6 0.00 0.00 0.00 21 1012.3
20260502222514 71 77 3.5 8.7 0.00 0.00 0.00 21 1012.4
20260502222013 71 192 1.7 9.6 0.00 0.00 0.00 21 1012.6
20260502221515 71 253 5.2 9.6 0.00 0.00 0.00 21 1012.7
20260502221010 71 207 0.9 7.8 0.00 0.00 0.00 21 1012.8
20260502220509 71 153 3.5 17.4 0.00 0.00 0.00 22 1012.8
20260502220008 70 168 8.7 17.4 0.00 0.00 0.00 20 1013.0
20260502215510 71 174 3.5 7.8 0.00 0.00 0.00 21 1013.1
20260502215005 71 258 1.7 7.8 0.00 0.00 0.00 23 1013.2
20260502214504 71 188 4.3 10.4 0.00 0.00 0.00 22 1013.3
20260502214002 71 143 3.5 10.4 0.00 0.00 0.00 21 1013.4
20260502213601 71 260 5.2 9.6 0.00 0.00 0.00 23 1013.5
20260502213059 71 219 5.2 12.2 0.00 0.00 0.00 20 1013.6
20260502212557 72 174 7.0 12.2 0.00 0.00 0.00 19 1013.7
20260502212056 71 128 3.5 9.6 0.00 0.00 0.00 19 1013.6
20260502211555 71 126 5.2 13.0 0.00 0.00 0.00 20 1013.8
20260502211052 72 180 10.4 12.2 0.00 0.00 0.00 22 1013.6